Time,TemperatureF,DewpointF,PressureIn,WindDirection,WindDirectionDegrees,WindSpeedMPH,WindSpeedGustMPH,Humidity,HourlyPrecipIn,Conditions,Clouds,dailyrainin,SoftwareType,DateUTC
2013-03-11 00:07:00,55.5,33.0,30.01,SSE,148,0.0,3.0,43,0.00,,,0.00,weatherlink.com 1.10,2013-03-11 04:07:00,
2013-03-11 00:22:00,53.7,33.0,30.00,East,101,0.0,4.0,45,0.00,,,0.00,weatherlink.com 1.10,2013-03-11 04:22:00,
2013-03-11 00:37:00,52.7,32.0,30.00,ESE,105,0.0,3.0,46,0.00,,,0.00,weatherlink.com 1.10,2013-03-11 04:37:00,
2013-03-11 00:52:00,53.3,33.0,29.99,ESE,102,0.0,2.0,47,0.00,,,0.00,weatherlink.com 1.10,2013-03-11 04:52:00,
2013-03-11 01:07:00,51.7,33.0,29.99,East,101,0.0,2.0,50,0.00,,,0.00,weatherlink.com 1.10,2013-03-11 05:07:00,
2013-03-11 01:22:00,51.3,35.0,29.99,East,99,3.0,4.0,54,0.00,,,0.00,weatherlink.com 1.10,2013-03-11 05:22:00,
2013-03-11 01:37:00,51.3,34.0,29.98,SE,131,2.0,3.0,52,0.00,,,0.00,weatherlink.com 1.10,2013-03-11 05:37:00,
2013-03-11 01:52:00,51.6,34.0,29.98,East,90,1.0,3.0,51,0.00,,,0.00,weatherlink.com 1.10,2013-03-11 05:52:00,
2013-03-11 02:07:00,51.2,33.0,29.97,East,101,1.0,4.0,51,0.00,,,0.00,weatherlink.com 1.10,2013-03-11 06:07:00,
2013-03-11 02:22:00,51.1,34.0,29.97,ESE,102,2.0,3.0,52,0.00,,,0.00,weatherlink.com 1.10,2013-03-11 06:22:00,
2013-03-11 02:37:00,50.9,34.0,29.96,East,94,2.0,3.0,52,0.00,,,0.00,weatherlink.com 1.10,2013-03-11 06:37:00,
2013-03-11 02:52:00,51.6,33.0,29.96,East,88,2.0,4.0,49,0.00,,,0.00,weatherlink.com 1.10,2013-03-11 06:52:00,
2013-03-11 03:07:00,51.6,33.0,29.95,ESE,121,0.0,2.0,50,0.00,,,0.00,weatherlink.com 1.10,2013-03-11 07:07:00,
2013-03-11 03:22:00,49.8,34.0,29.96,East,86,2.0,2.0,54,0.00,,,0.00,weatherlink.com 1.10,2013-03-11 07:22:00,
2013-03-11 03:37:00,48.8,34.0,29.95,East,97,0.0,2.0,57,0.00,,,0.00,weatherlink.com 1.10,2013-03-11 07:37:00,
2013-03-11 03:53:00,47.5,35.0,29.94,East,96,3.0,3.0,63,0.00,,,0.00,weatherlink.com 1.10,2013-03-11 07:53:00,
2013-03-11 04:08:00,47.0,36.0,29.93,ESE,103,3.0,4.0,65,0.00,,,0.00,weatherlink.com 1.10,2013-03-11 08:08:00,
2013-03-11 04:23:00,46.6,36.0,29.92,ESE,105,5.0,5.0,66,0.00,,,0.00,weatherlink.com 1.10,2013-03-11 08:23:00,
2013-03-11 04:38:00,45.8,36.0,29.92,East,86,4.0,5.0,69,0.00,,,0.00,weatherlink.com 1.10,2013-03-11 08:38:00,
2013-03-11 04:53:00,46.1,36.0,29.91,East,97,3.0,4.0,67,0.00,,,0.00,weatherlink.com 1.10,2013-03-11 08:53:00,
2013-03-11 05:08:00,45.8,37.0,29.92,East,94,4.0,4.0,70,0.00,,,0.00,weatherlink.com 1.10,2013-03-11 09:08:00,
2013-03-11 05:23:00,46.1,36.0,29.92,East,94,3.0,4.0,69,0.00,,,0.00,weatherlink.com 1.10,2013-03-11 09:23:00,
2013-03-11 05:38:00,44.4,37.0,29.92,East,98,4.0,5.0,74,0.00,,,0.00,weatherlink.com 1.10,2013-03-11 09:38:00,
2013-03-11 05:53:00,45.2,36.0,29.91,East,101,5.0,6.0,71,0.00,,,0.00,weatherlink.com 1.10,2013-03-11 09:53:00,
2013-03-11 06:08:00,46.5,36.0,29.91,East,92,3.0,5.0,67,0.00,,,0.00,weatherlink.com 1.10,2013-03-11 10:08:00,
2013-03-11 06:23:00,45.0,36.0,29.92,East,92,3.0,3.0,71,0.00,,,0.00,weatherlink.com 1.10,2013-03-11 10:23:00,
2013-03-11 06:38:00,44.3,36.0,29.93,East,94,4.0,6.0,73,0.00,,,0.00,weatherlink.com 1.10,2013-03-11 10:38:00,
2013-03-11 06:53:00,45.3,36.0,29.93,East,98,5.0,6.0,71,0.00,,,0.00,weatherlink.com 1.10,2013-03-11 10:53:00,
2013-03-11 07:08:00,44.7,36.0,29.93,East,98,4.0,5.0,72,0.00,,,0.00,weatherlink.com 1.10,2013-03-11 11:08:00,
2013-03-11 07:23:00,44.3,36.0,29.93,East,101,4.0,4.0,73,0.00,,,0.00,weatherlink.com 1.10,2013-03-11 11:23:00,
2013-03-11 07:38:00,44.3,37.0,29.93,East,99,3.0,4.0,74,0.00,,,0.00,weatherlink.com 1.10,2013-03-11 11:38:00,
2013-03-11 07:53:00,43.5,36.0,29.93,ESE,102,5.0,5.0,75,0.00,,,0.00,weatherlink.com 1.10,2013-03-11 11:53:00,
2013-03-11 08:08:00,44.1,36.0,29.93,East,94,6.0,6.0,74,0.00,,,0.00,weatherlink.com 1.10,2013-03-11 12:08:00,
2013-03-11 08:23:00,45.4,36.0,29.93,East,97,3.0,4.0,71,0.00,,,0.00,weatherlink.com 1.10,2013-03-11 12:23:00,
2013-03-11 08:38:00,45.1,36.0,29.94,East,91,6.0,6.0,71,0.00,,,0.00,weatherlink.com 1.10,2013-03-11 12:38:00,
2013-03-11 08:53:00,45.5,36.0,29.95,East,96,4.0,5.0,70,0.00,,,0.00,weatherlink.com 1.10,2013-03-11 12:53:00,
2013-03-11 09:08:00,45.5,36.0,29.95,East,94,5.0,6.0,70,0.00,,,0.00,weatherlink.com 1.10,2013-03-11 13:08:00,
2013-03-11 09:23:00,46.4,36.0,29.94,East,94,4.0,7.0,68,0.00,,,0.00,weatherlink.com 1.10,2013-03-11 13:23:00,
2013-03-11 09:38:00,46.0,36.0,29.94,East,94,6.0,6.0,69,0.00,,,0.00,weatherlink.com 1.10,2013-03-11 13:38:00,
2013-03-11 09:53:00,47.6,36.0,29.95,East,97,5.0,6.0,65,0.00,,,0.00,weatherlink.com 1.10,2013-03-11 13:53:00,
2013-03-11 10:08:00,47.4,36.0,29.94,East,89,7.0,7.0,65,0.00,,,0.00,weatherlink.com 1.10,2013-03-11 14:08:00,
2013-03-11 10:23:00,47.5,36.0,29.93,East,96,7.0,7.0,65,0.00,,,0.00,weatherlink.com 1.10,2013-03-11 14:23:00,
2013-03-11 10:38:00,47.4,36.0,29.93,East,90,7.0,9.0,66,0.00,,,0.00,weatherlink.com 1.10,2013-03-11 14:38:00,
2013-03-11 10:53:00,48.9,37.0,29.93,East,97,4.0,5.0,63,0.00,,,0.00,weatherlink.com 1.10,2013-03-11 14:53:00,
2013-03-11 11:08:00,49.9,36.0,29.93,East,90,2.0,4.0,59,0.00,,,0.00,weatherlink.com 1.10,2013-03-11 15:08:00,
2013-03-11 11:23:00,51.1,35.0,29.92,ESE,104,3.0,4.0,55,0.00,,,0.00,weatherlink.com 1.10,2013-03-11 15:23:00,
2013-03-11 11:38:00,51.1,35.0,29.90,East,90,3.0,5.0,55,0.00,,,0.00,weatherlink.com 1.10,2013-03-11 15:38:00,
2013-03-11 11:53:00,53.3,35.0,29.90,East,90,2.0,4.0,51,0.00,,,0.00,weatherlink.com 1.10,2013-03-11 15:53:00,
2013-03-11 12:08:00,54.2,34.0,29.89,ESE,110,1.0,4.0,47,0.00,,,0.00,weatherlink.com 1.10,2013-03-11 16:08:00,
2013-03-11 12:23:00,58.9,32.0,29.86,SE,134,4.0,7.0,37,0.00,,,0.00,weatherlink.com 1.10,2013-03-11 16:23:00,
2013-03-11 12:38:00,61.5,32.0,29.87,East,96,2.0,6.0,33,0.00,,,0.00,weatherlink.com 1.10,2013-03-11 16:38:00,
2013-03-11 12:54:00,62.4,31.0,29.87,ENE,68,3.0,10.0,31,0.00,,,0.00,weatherlink.com 1.10,2013-03-11 16:54:00,
2013-03-11 13:09:00,62.8,31.0,29.84,East,84,2.0,7.0,30,0.00,,,0.00,weatherlink.com 1.10,2013-03-11 17:09:00,
2013-03-11 13:24:00,62.9,31.0,29.86,SW,224,4.0,10.0,30,0.00,,,0.00,weatherlink.com 1.10,2013-03-11 17:24:00,
2013-03-11 13:39:00,63.1,31.0,29.84,SE,130,1.0,7.0,30,0.00,,,0.00,weatherlink.com 1.10,2013-03-11 17:39:00,
2013-03-11 13:54:00,63.1,31.0,29.84,NNE,32,2.0,11.0,30,0.00,,,0.00,weatherlink.com 1.10,2013-03-11 17:54:00,
2013-03-11 14:09:00,63.3,31.0,29.82,ESE,102,13.0,13.0,30,0.00,,,0.00,weatherlink.com 1.10,2013-03-11 18:09:00,
2013-03-11 14:24:00,63.6,31.0,29.80,ESE,104,8.0,12.0,29,0.00,,,0.00,weatherlink.com 1.10,2013-03-11 18:24:00,
2013-03-11 14:39:00,63.7,32.0,29.79,East,97,10.0,11.0,30,0.00,,,0.00,weatherlink.com 1.10,2013-03-11 18:39:00,
2013-03-11 14:54:00,63.3,31.0,29.80,East,91,3.0,10.0,30,0.00,,,0.00,weatherlink.com 1.10,2013-03-11 18:54:00,
2013-03-11 15:09:00,62.5,32.0,29.80,East,85,3.0,10.0,32,0.00,,,0.00,weatherlink.com 1.10,2013-03-11 19:09:00,
2013-03-11 15:24:00,62.0,32.0,29.79,ENE,78,7.0,8.0,32,0.00,,,0.00,weatherlink.com 1.10,2013-03-11 19:24:00,
2013-03-11 15:39:00,62.0,32.0,29.78,East,88,3.0,7.0,32,0.00,,,0.00,weatherlink.com 1.10,2013-03-11 19:39:00,
2013-03-11 15:54:00,62.2,31.0,29.78,East,82,5.0,11.0,31,0.00,,,0.00,weatherlink.com 1.10,2013-03-11 19:54:00,
2013-03-11 16:09:00,61.4,30.0,29.75,ESE,104,7.0,9.0,31,0.00,,,0.00,weatherlink.com 1.10,2013-03-11 20:09:00,
2013-03-11 16:24:00,61.6,30.0,29.75,ESE,105,10.0,14.0,30,0.00,,,0.00,weatherlink.com 1.10,2013-03-11 20:24:00,
2013-03-11 16:39:00,61.6,30.0,29.74,NNE,33,5.0,11.0,30,0.00,,,0.00,weatherlink.com 1.10,2013-03-11 20:39:00,
2013-03-11 16:54:00,61.1,30.0,29.74,ESE,109,12.0,15.0,31,0.00,,,0.00,weatherlink.com 1.10,2013-03-11 20:54:00,
2013-03-11 17:09:00,60.8,31.0,29.73,East,82,9.0,11.0,33,0.00,,,0.00,weatherlink.com 1.10,2013-03-11 21:09:00,
2013-03-11 17:24:00,60.6,33.0,29.72,NE,54,9.0,10.0,35,0.00,,,0.00,weatherlink.com 1.10,2013-03-11 21:24:00,
2013-03-11 17:39:00,60.8,34.0,29.72,ESE,111,8.0,17.0,37,0.00,,,0.00,weatherlink.com 1.10,2013-03-11 21:39:00,
2013-03-11 17:54:00,60.7,35.0,29.69,NE,53,6.0,13.0,38,0.00,,,0.00,weatherlink.com 1.10,2013-03-11 21:54:00,
2013-03-11 18:09:00,60.7,36.0,29.70,East,96,8.0,16.0,40,0.00,,,0.00,weatherlink.com 1.10,2013-03-11 22:09:00,
2013-03-11 18:24:00,60.4,37.0,29.70,East,94,2.0,17.0,42,0.00,,,0.00,weatherlink.com 1.10,2013-03-11 22:24:00,
2013-03-11 18:39:00,60.0,38.0,29.70,East,87,12.0,16.0,44,0.00,,,0.00,weatherlink.com 1.10,2013-03-11 22:39:00,
2013-03-11 18:54:00,59.5,40.0,29.72,South,187,10.0,16.0,48,0.00,,,0.00,weatherlink.com 1.10,2013-03-11 22:54:00,
2013-03-11 19:09:00,58.4,41.0,29.72,East,95,1.0,7.0,53,0.00,,,0.00,weatherlink.com 1.10,2013-03-11 23:09:00,
2013-03-11 19:24:00,57.6,41.0,29.72,ESE,110,6.0,8.0,55,0.00,,,0.00,weatherlink.com 1.10,2013-03-11 23:24:00,
2013-03-11 19:39:00,57.1,42.0,29.72,ENE,68,8.0,10.0,58,0.00,,,0.00,weatherlink.com 1.10,2013-03-11 23:39:00,
2013-03-11 19:54:00,56.4,43.0,29.71,East,86,6.0,11.0,62,0.00,,,0.00,weatherlink.com 1.10,2013-03-11 23:54:00,
2013-03-11 20:09:00,55.8,44.0,29.71,East,96,3.0,11.0,64,0.00,,,0.00,weatherlink.com 1.10,2013-03-12 00:09:00,
2013-03-11 20:24:00,55.7,44.0,29.71,ESE,108,2.0,6.0,64,0.00,,,0.00,weatherlink.com 1.10,2013-03-12 00:24:00,
2013-03-11 20:39:00,55.5,44.0,29.72,East,79,2.0,6.0,65,0.00,,,0.00,weatherlink.com 1.10,2013-03-12 00:39:00,
2013-03-11 20:54:00,55.5,44.0,29.70,SE,142,2.0,6.0,65,0.00,,,0.00,weatherlink.com 1.10,2013-03-12 00:54:00,
2013-03-11 21:09:00,55.9,44.0,29.70,ESE,120,3.0,8.0,64,0.00,,,0.00,weatherlink.com 1.10,2013-03-12 01:09:00,
2013-03-11 21:24:00,56.2,43.0,29.71,North,351,3.0,5.0,62,0.00,,,0.00,weatherlink.com 1.10,2013-03-12 01:24:00,
2013-03-11 21:39:00,56.5,43.0,29.71,NE,53,1.0,3.0,62,0.00,,,0.00,weatherlink.com 1.10,2013-03-12 01:39:00,
2013-03-11 21:54:00,56.7,43.0,29.71,NNW,332,1.0,7.0,61,0.00,,,0.00,weatherlink.com 1.10,2013-03-12 01:54:00,
2013-03-11 22:09:00,55.2,44.0,29.73,West,263,4.0,5.0,65,0.01,,,0.01,weatherlink.com 1.10,2013-03-12 02:09:00,
2013-03-11 22:24:00,53.5,46.0,29.73,ENE,60,4.0,4.0,77,0.03,,,0.03,weatherlink.com 1.10,2013-03-12 02:24:00,
2013-03-11 22:39:00,53.2,47.0,29.73,ESE,110,4.0,6.0,79,0.04,,,0.04,weatherlink.com 1.10,2013-03-12 02:39:00,
2013-03-11 22:54:00,53.8,47.0,29.73,ESE,106,1.0,7.0,79,0.05,,,0.05,weatherlink.com 1.10,2013-03-12 02:54:00,
2013-03-11 23:09:00,53.6,48.0,29.73,ENE,77,2.0,7.0,81,0.05,,,0.06,weatherlink.com 1.10,2013-03-12 03:09:00,
2013-03-11 23:24:00,52.6,45.0,29.76,West,274,19.0,26.0,75,0.04,,,0.07,weatherlink.com 1.10,2013-03-12 03:24:00,
2013-03-11 23:39:00,48.4,44.0,29.76,West,266,9.0,16.0,86,0.10,,,0.01,weatherlink.com 1.10,2013-03-12 03:39:00,
2013-03-11 23:54:00,47.6,44.0,29.78,WSW,257,11.0,13.0,88,0.15,,,0.07,weatherlink.com 1.10,2013-03-12 03:54:00,